Location: Warszawa
(52.2500°N, 21.0000°E)
Time: 00:44:14
(UTC+01:00)

ISS - Visible Passes

Search period start: 26 January 2020 00:00
Search period end: 05 February 2020 00:00
Orbit: 416 x 423 km, 51.6° (Epoch: 26 January)

Date Brightness Start Highest point End Pass type
(mag) Time Alt. Az. Time Alt. Az. Time Alt. Az.
26 Jan -2.3 16:52:53 10° SSW 16:55:48 27° SSE 16:58:43 10° E visible
26 Jan -3.5 18:28:56 10° WSW 18:31:57 63° SW 18:31:57 63° SW visible
27 Jan -3.5 17:41:29 10° WSW 17:44:50 59° SSE 17:46:24 28° E visible
27 Jan -1.1 19:18:11 10° W 19:19:22 20° W 19:19:22 20° W visible
28 Jan -3.1 16:54:06 10° SW 16:57:22 47° SSE 17:00:39 10° E visible
28 Jan -3.6 18:30:40 10° W 18:33:48 73° WSW 18:33:48 73° WSW visible
29 Jan -3.8 17:43:08 10° W 17:46:32 79° S 17:48:13 27° E visible
29 Jan -1.1 19:19:56 10° W 19:21:11 21° W 19:21:11 21° W visible
30 Jan -3.6 16:55:38 10° WSW 16:59:00 71° S 17:02:23 10° E visible
30 Jan -3.6 18:32:23 10° W 18:35:36 72° SW 18:35:36 72° SW visible
31 Jan -3.8 17:44:50 10° W 17:48:14 81° S 17:50:03 25° E visible
31 Jan -1.1 19:21:40 10° W 19:23:01 21° W 19:23:01 21° W visible
01 Feb -3.7 16:57:16 10° W 17:00:40 83° S 17:04:04 10° E visible
01 Feb -3.3 18:34:04 10° W 18:37:23 53° SSW 18:37:29 53° SSW visible
02 Feb -3.5 17:46:29 10° W 17:49:52 65° SSW 17:52:00 20° ESE visible
02 Feb -1.1 19:23:33 10° W 19:24:58 18° WSW 19:24:58 18° WSW visible
03 Feb -3.6 16:58:55 10° W 17:02:18 75° S 17:05:41 10° ESE visible
03 Feb -2.3 18:35:48 10° W 18:38:51 31° SSW 18:39:35 28° S visible
04 Feb -2.6 17:48:08 10° W 17:51:22 41° SSW 17:54:16 12° SE visible
04 Feb -0.7 19:26:18 10° WSW 19:27:16 11° SW 19:27:16 11° SW visible
